This demonstration page uses our WeatherBlox Daily Observations layout. Learn more.

Left ArrowRight Arrow

Hourly Observations for May 31, 2019

Temp ( °F °C ) Dew Point ( °F °C ) Humidity (%) Winds ( mph kmh ) Pressure ( in mb ) Visibility ( mi km ) Precip ( " mm )
12:15 am 00:15 Clear 58 14.3 56 13.2 93 93 N N/A 29.97 1015 10 16 N/A
12:35 am 00:35 Clear 59 15 56 13.4 90 90 N N/A 29.95 1014 7 11 N/A
12:55 am 00:55 Clear 58 14.7 55 13 90 90 N N/A 29.96 1015 10 16 N/A
1:35 am 01:35 Clear 58 14.7 56 13.6 93 93 SSW 5 7 29.96 1015 7 11 N/A
1:55 am 01:55 Clear 58 14.7 56 13.3 91 91 SW 6 9 29.97 1015 7 11 N/A
2:15 am 02:15 Clear 57 14.1 53 11.8 86 86 N N/A 29.98 1015 10 16 N/A
2:35 am 02:35 Clear 57 14 53 11.7 86 86 WSW 3 6 29.98 1015 10 16 N/A
2:55 am 02:55 Clear 58 14.3 53 11.5 83 83 WSW 3 6 29.98 1015 10 16 N/A
3:15 am 03:15 Clear 58 14.4 53 11.5 83 83 N N/A 29.97 1015 10 16 N/A
3:35 am 03:35 Clear 57 14.1 53 11.5 84 84 WSW 3 6 29.98 1015 10 16 N/A
3:55 am 03:55 Clear 56 13.6 52 11.2 86 86 N N/A 29.98 1015 10 16 N/A
4:15 am 04:15 Clear 57 13.9 52 11 83 83 N N/A 29.98 1015 10 16 N/A
4:35 am 04:35 Clear 56 13.5 51 10.7 83 83 N N/A 29.98 1015 10 16 N/A
4:55 am 04:55 Clear 53 11.8 51 10.3 91 91 N N/A 30.00 1016 10 16 N/A
5:15 am 05:15 Clear 53 11.6 51 10.4 92 92 W 3 6 30.00 1016 7 11 N/A
5:35 am 05:35 Clear 54 12.1 52 11 93 93 W 5 7 30.00 1016 10 16 N/A
5:55 am 05:55 Clear 55 13 52 11.1 88 88 W 3 6 30.00 1016 10 16 N/A
6:15 am 06:15 Sunny 56 13.4 52 11 86 86 N N/A 30.00 1016 10 16 N/A
6:35 am 06:35 Sunny 55 13 52 11.1 88 88 W 6 9 30.02 1016 10 16 N/A
6:55 am 06:55 Sunny 58 14.2 53 11.5 84 84 W 6 9 30.01 1016 10 16 N/A
7:15 am 07:15 Sunny 58 14.5 53 11.5 82 82 W 5 7 29.99 1016 10 16 N/A
7:35 am 07:35 Sunny 58 14.5 54 12 85 85 N N/A 29.99 1016 10 16 N/A
7:55 am 07:55 Sunny 58 14.5 54 12.1 86 86 N N/A 29.99 1016 10 16 N/A
8:15 am 08:15 Sunny 59 14.8 55 13 89 89 N N/A 30.00 1016 10 16 N/A
8:35 am 08:35 Sunny 60 15.5 56 13.1 86 86 N N/A 29.99 1016 10 16 N/A
8:55 am 08:55 Sunny 62 16.7 56 13.6 82 82 N N/A 29.98 1015 10 16 N/A
9:15 am 09:15 Sunny 64 17.8 56 13.6 77 77 N N/A 29.98 1015 10 16 N/A
9:35 am 09:35 Sunny 66 18.7 56 13.5 72 72 N N/A 29.97 1015 10 16 N/A
9:55 am 09:55 Sunny 69 20.5 56 13.3 63 63 SSW 3 6 29.95 1014 10 16 N/A
10:15 am 10:15 Sunny 69 20.6 57 13.8 65 65 SSW 3 6 29.95 1014 10 16 N/A
10:35 am 10:35 Sunny 71 21.5 55 12.9 58 58 SW 5 7 29.94 1014 10 16 N/A
10:55 am 10:55 Sunny 72 22 56 13.6 59 59 WSW 6 9 29.94 1014 10 16 N/A
11:15 am 11:15 Sunny 73 22.6 57 13.7 57 57 SW 6 9 29.94 1014 10 16 N/A
11:35 am 11:35 Sunny 73 22.9 55 12.9 53 53 SW 5 7 29.93 1014 10 16 N/A
11:55 am 11:55 Sunny 73 23 56 13.2 54 54 SW 5 7 29.93 1014 10 16 N/A
12:15 pm 12:15 Sunny 74 23.6 54 12.2 49 49 SSW 5 7 29.93 1013 10 16 N/A
12:35 pm 12:35 Sunny 75 24.1 53 11.6 46 46 SW 7 11 29.91 1013 10 16 N/A
12:55 pm 12:55 Sunny 75 23.9 51 10.5 43 43 S 9 15 29.91 1013 10 16 N/A
1:15 pm 13:15 Sunny 77 24.8 53 11.5 43 43 S 6 9 29.90 1012 10 16 N/A
1:35 pm 13:35 Sunny 77 25.1 51 10.7 40 40 S 8 13 29.90 1012 10 16 N/A
1:55 pm 13:55 Sunny 77 25.2 51 10.8 40 40 SSW 8 13 29.89 1012 10 16 N/A
2:15 pm 14:15 Sunny 78 25.5 51 10.4 39 39 SSW 9 15 29.88 1012 10 16 N/A
2:35 pm 14:35 Sunny 78 25.6 52 11 40 40 SSW 12 19 29.87 1012 10 16 N/A
2:55 pm 14:55 Sunny 78 25.8 52 11.3 40 40 S 8 13 29.86 1011 10 16 N/A
3:15 pm 15:15 Sunny 78 25.8 51 10.5 38 38 S 8 13 29.86 1011 10 16 N/A
3:35 pm 15:35 Sunny 79 25.9 51 10.6 38 38 SSW 14 22 29.85 1011 10 16 N/A
3:55 pm 15:55 Sunny 78 25.8 52 10.9 39 39 S 13 20 29.84 1011 10 16 N/A
4:15 pm 16:15 Sunny 79 26.1 51 10.8 38 38 SSW 10 17 29.84 1010 10 16 N/A
4:35 pm 16:35 Sunny 79 26.2 51 10.5 37 37 S 7 11 29.83 1010 10 16 N/A
4:55 pm 16:55 Sunny 79 26.1 52 11.3 40 40 S 12 19 29.82 1010 10 16 N/A
5:15 pm 17:15 Sunny 79 26 51 10.8 39 39 SSW 8 13 29.82 1010 10 16 N/A
5:35 pm 17:35 Sunny 79 26.1 53 11.4 40 40 SSW 5 7 29.81 1009 10 16 N/A
5:55 pm 17:55 Sunny 79 26 53 11.7 41 41 SSW 7 11 29.81 1009 10 16 N/A
6:15 pm 18:15 Sunny 78 25.6 52 11.3 41 41 SSW 7 11 29.81 1010 10 16 N/A
6:35 pm 18:35 Sunny 79 26 53 11.9 41 41 S 7 11 29.80 1009 7 11 N/A
6:55 pm 18:55 Sunny 78 25.4 55 12.6 45 45 S 7 11 29.79 1009 10 16 N/A
7:15 pm 19:15 Sunny 77 25.1 55 13 47 47 SSE 8 13 29.80 1009 10 16 N/A
7:35 pm 19:35 Sunny 76 24.7 56 13.2 49 49 SSE 6 9 29.79 1009 10 16 N/A
7:55 pm 19:55 Sunny 75 23.9 57 14.1 54 54 SSE 6 9 29.80 1009 10 16 N/A
8:15 pm 20:15 Sunny 72 22.4 58 14.5 61 61 SSE 6 9 29.81 1009 10 16 N/A
8:35 pm 20:35 Sunny 71 21.5 58 14.5 65 65 SSE 6 9 29.82 1010 10 16 N/A
8:55 pm 20:55 Sunny 69 20.7 59 15 70 70 SSE 7 11 29.82 1010 10 16 N/A
9:15 pm 21:15 Clear 69 20.4 59 15 71 71 SSE 5 7 29.82 1010 10 16 N/A
9:35 pm 21:35 Clear 68 20 59 15 73 73 SSE 7 11 29.83 1010 10 16 N/A
9:55 pm 21:55 Clear 67 19.5 59 15.2 76 76 SSE 6 9 29.84 1011 10 16 N/A
10:15 pm 22:15 Clear 67 19.5 60 15.5 78 78 SSE 6 9 29.85 1011 10 16 N/A
10:35 pm 22:35 Clear 67 19.5 60 15.5 78 78 SSE 6 9 29.85 1011 10 16 N/A
10:55 pm 22:55 Clear 67 19.5 60 15.5 78 78 SSE 7 11 29.85 1011 10 16 N/A
11:15 pm 23:15 Clear 66 19 60 15.5 80 80 SSE 7 11 29.86 1011 10 16 N/A
11:35 pm 23:35 Clear 65 18.5 60 15.3 82 82 S 6 9 29.85 1011 10 16 N/A
11:55 pm 23:55 Clear 64 17.8 59 15.2 85 85 S 6 9 29.86 1011 10 16 N/A

Powered by AerisWeather